This is the latest recevied weather packets stored in our database for station/object HG5CJW-10. If no packets are shown the sender has not sent any weather packets the latest 10 day(s).
| Time | Temp. | Humidity | Pressure | Rain* | Wind** | Luminosity | Snow |
|---|---|---|---|---|---|---|---|
| 1777519182 | 8.33° C | 43% | 1045.1 hPa | - | - | - | - |
| 1777518277 | 8.89° C | 43% | 1045.2 hPa | - | - | - | - |
| 1777517377 | 8.89° C | 43% | 1045.2 hPa | - | - | - | - |
| 1777515577 | 9.44° C | 42% | 1045.2 hPa | - | - | - | - |
| 1777514676 | 9.44° C | 42% | 1045.1 hPa | - | - | - | - |
| 1777513777 | 9.44° C | 41% | 1045 hPa | - | - | - | - |
| 1777511976 | 10° C | 41% | 1044.9 hPa | - | - | - | - |
| 1777509276 | 10° C | 41% | 1044.5 hPa | - | - | - | - |
| 1777508376 | 10.56° C | 41% | 1044.5 hPa | - | - | - | - |
| 1777505676 | 10.56° C | 40% | 1044.4 hPa | - | - | - | - |
| 1777504771 | 11.11° C | 40% | 1044.8 hPa | - | - | - | - |
| 1777503870 | 11.11° C | 40% | 1044.8 hPa | - | - | - | - |
| 1777502070 | 11.67° C | 39% | 1044.7 hPa | - | - | - | - |
| 1777500270 | 11.67° C | 39% | 1043.7 hPa | - | - | - | - |
| 1777498470 | 12.22° C | 39% | 1043.7 hPa | - | - | - | - |
| 1777497570 | 12.22° C | 39% | 1043.8 hPa | - | - | - | - |
| 1777496670 | 12.78° C | 38% | 1043.8 hPa | - | - | - | - |
| 1777494870 | 12.78° C | 39% | 1043.2 hPa | - | - | - | - |
| 1777493970 | 12.78° C | 38% | 1042.9 hPa | - | - | - | - |
| 1777490364 | 13.89° C | 38% | 1042.4 hPa | - | - | - | - |
| 1777489464 | 13.89° C | 38% | 1042.3 hPa | - | - | - | - |
| 1777488564 | 14.44° C | 38% | 1042.2 hPa | - | - | - | - |
| 1777487664 | 14.44° C | 38% | 1042.2 hPa | - | - | - | - |
| 1777486764 | 15° C | 37% | 1041.8 hPa | - | - | - | - |
| 1777484064 | 15.56° C | 37% | 1040.9 hPa | - | - | - | - |
* Rain since midnight (hover to see other rain measurements)
** Current wind speed in m/s (hover to see current wind gust speed)